星链-36422(STARLINK-36422)

导读

STARLINK-36422是美国于2026年1月9日发射的星链卫星,隶属于SpaceX公司的星链星座项目。星链项目旨在构建全球卫星互联网星座,为全球提供低延迟、高速率的宽带互联网服务,该卫星的入轨进一步扩充了星链星座的规模,推进了全球卫星互联网组网进程。

Basic Information
目录编号:
67344
目录名称:
STARLINK-36422
国际标识:
2026-003L
轨道中心:
EARTH
卫星名称:
星链-36422
卫星全名:
星链-36422(STARLINK-36422)
卫星状态:
在轨 (已飞行238 天)
发射日期:
2026-01-09 UTC
国别 :
美国 (US)
星等 :
--
Orbit Information
数据来源 国际轨道数据
星历时间: 2026-09-03T20:24:26+0800
20小时前
查看轨道信息
半长轴: 6861.145km
偏心率: 0.0002209
轨道倾角: 43.003°
近地点辐角 269.086°
升交点赤经 302.501°
平近点角 90.974°
近地点: 481.492km
远地点: 484.524km
周期: 94.266分钟
每日圈数: 15.27594
Detailed Information
固有亮度:
5
最大亮度:
2.5
卫星平台:
Starlink V1.0
覆盖范围:
全球
运营商:
太空探索技术公司
运营商所在国:
美国
制造商(研发单位):
太空探索技术公司
制造商所在国:
美国
使用方式:
暂无
Satellite Introduction
Starlink 计划是 SpaceX 推出的全球卫星互联网项目,通过发射低轨道卫星,为全球尤其是偏远地区提供高速、低延迟的互联网服务。自 2019 年起,Starlink 已部署数千颗卫星,旨在缩小全球数字鸿沟,推动互联网普及。该项目还为军事、航空等行业提供通信支持,带来广泛经济效益。
2D Orbit Map
3D Orbit Map
Orbit Altitude Analysis Chart
Orbit Inclination Analysis Chart
Orbit Comprehensive Analysis Chart
View Comprehensive Chart
Conjunction Data List
Event ID Objects TCA Miss Dist (km) Collision Risk Probability Collision Risk Index (CRI) Action
CDM_260904-095605-638406-734421
2026-09-04T
09:56:07+0000
0.309 km
远距离
2.23472E-4 高风险 0.82
CDM_260904-205305-973306-734421
2026-09-04T
20:53:42+0000
0.704 km
远距离
3.40232E-5 中风险 0.66
CDM_260904-135105-638406-734421
2026-09-04T
13:51:30+0000
0.734 km
远距离
2.324298E-5 中风险 0.62
CDM_260905-004905-973306-734421
2026-09-05T
00:49:05+0000
1.134 km
极远距离
6.859271E-6 低风险 0.52
CDM_260904-191905-973306-734421
2026-09-04T
19:19:33+0000
2.746 km
极远距离
7.063409E-7 极低风险 0.32
CDM_260905-022305-973306-734421
2026-09-05T
02:23:14+0000
2.891 km
极远距离
6.637407E-7 极低风险 0.31